Tracking 19250 objects as of 24-Sep-2018
HD Live streaming from Space Station
objects crossing your sky now

FENGYUN 1C DEB

Track FENGYUN 1C DEB now!
10-day predictions


NORAD ID: 31443
Int'l Code: 1999-025BUF
Perigee: 628.1 km
Apogee: 989.2 km
Inclination: 99.2 °
Period: 100.9 minutes
Semi major axis: 7179 km
RCS: 0.0109 m2 (small)
Launch date: May 10, 1999
Source: People's Republic of China (PRC)
Launch site: Taiyaun Space Center, China (TSC)

Note: This is SATELLITE DEBRIS
aabbcc
Your satellite tracking list
Your tracking list is empty




NASA's NSSDC Master Catalog

Two Line Element Set (TLE):
1 31443U 99025BUF 18264.89972646 +.00000322 +00000-0 +11138-3 0  9996
2 31443 099.2234 151.6724 0251491 181.6396 178.3985 14.27076416595286
Source of the keplerian elements: AFSPC